Overview Statistics Trail Chart Weather Telemetry Raw packets
 

This is the latest recevied weather packets stored in our database for station/object F8KHU-13. If no packets are shown the sender has not sent any weather packets the latest 10 day(s).

<< 34 35 36 37 38 39 40 >>
Time Temp. Humidity Pressure Rain* Wind** Luminosity Snow
1788258342 18.89° C 28% 1021.1 hPa 0 mm - 0 W/m² -
1788257443 18.89° C 28% 1021.2 hPa 0 mm - 0 W/m² -
1788257423 18.89° C 28% 1021.1 hPa 0 mm - 0 W/m² -
1788256563 18.89° C 28% 1021.3 hPa 0 mm - 0 W/m² -
1788256543 18.89° C 28% 1021.2 hPa 0 mm - 0 W/m² -
1788255663 17.78° C 30% 1021.3 hPa 0 mm - 0 W/m² -
1788255643 18.33° C 29% 1021.2 hPa 0 mm - 0 W/m² -
1788255623 18.33° C 29% 1021.2 hPa 0 mm - 0 W/m² -
1788254763 18.33° C 29% 1021.1 hPa 0 mm - 0 W/m² -
1788254743 17.78° C 30% 1021 hPa 0 mm - 0 W/m² -
1788253864 17.78° C 30% 1021 hPa 0 mm - 0 W/m² -
1788253846 17.78° C 30% 1021.1 hPa 0 mm - 0 W/m² -
1788253829 17.78° C 30% 1021.1 hPa 0 mm - 0 W/m² -
1788252963 17.78° C 31% 1021 hPa 0 mm - 0 W/m² -
1788252943 17.78° C 31% 1021 hPa 0 mm - 0 W/m² -
1788252064 16.67° C 32% 1020.9 hPa 0 mm - 0 W/m² -
1788252044 16.67° C 32% 1021 hPa 0 mm - 0 W/m² -
1788252023 16.67° C 32% 1020.8 hPa 0 mm - 0 W/m² -
1788251164 16.67° C 32% 1020.7 hPa 0 mm - 0 W/m² -
1788251144 16.67° C 32% 1020.8 hPa 0 mm - 0 W/m² -
1788250264 16.67° C 34% 1020.6 hPa 0 mm - 0 W/m² -
1788250244 16.67° C 34% 1020.6 hPa 0 mm - 0 W/m² -
1788250224 16.67° C 39% 1020.6 hPa 0 mm - 0 W/m² -
1788249364 15.56° C 44% 1020.6 hPa 0 mm - 0 W/m² -
1788249344 15.56° C 41% 1020.6 hPa 0 mm - 0 W/m² -

* Rain latest hour (hover to see other rain measurements)
** Current wind speed in m/s (hover to see current wind gust speed)